1st Responders/1st Detectors/Storm Spotters Weather Summary for McCreary County, KY

Forecast Maps


Reg. NEXRAD Animation


National Fire Danger: Day 1 & 2 Map

Current NWS Watch/Warnings

SPC Convective Day 1 Outlook


Day 2 Outlook

(Click images to enlarge|Page will refresh every 5 minutes)
UK Ag. Weather Center Desktop Severe Weather Service[HERE]
McCreary County, KY Hazardous Weather Outlook Webcast
(9 AM to 9 PM Mon-Fri)
[Fast]
[Dial-up]


UKAWC 1st Detectors/1st Responders Precision Weather Forecast For MCCREARY County, Kentucky
(based on the NWS County Digital Forecast)

ISSUED AT 11:00 UTC ON SATURDAY MAY 26 2018
DAY SATURDAY
EDT 3HR 8A 9A 10A 11A NOON 1P 2P 3P 4P 5P 6P 7P
MAX/MIN 67° -- -- -- -- -- -- -- -- -- -- 83°
TEMP 68° 72° 74° 77° 79° 81° 81° 83° 83° 81° 81° 77°
SKY COVER 69% 54% 56% 67% 63% 76% 71% 65% 66% 75% 70% 73%
Clouds
DEW PT 67° 67° 70° 70° 68° 67° 67° 67° 67° 67° 67° 68°
RH 93% 87% 84% 76% 68% 64% 60% 59% 58% 62% 64% 73%
POP 12HR 24% -- -- -- -- -- -- -- -- -- -- --
RAIN/SNOW (liq.equ) 0.00in -- -- -- -- -- 0.06in -- -- -- -- --
SNOWFALL 0in -- -- -- -- -- 0in -- -- -- -- --
WIND SPEED(MPH) 2 2 2 2 2 5 5 5 5 5 5 2
WIND Gust(MPH) 6 6 5 6 6 6 7 7 7 7 6 6
WIND DIR S SW SW SW SW SW SW SW SW SW SW SW
DEW Hvy Dew Hvy Dew Hvy Dew Lgt Dew -- -- -- -- -- -- -- Lgt Dew
HeatIndex 68 72 74 77 82 83 84 85 85 85 83 77
Rain Showers Isolated -- Isolated Scattered Scattered Scattered Scattered Scattered Scattered Scattered Numerous Numerous
Thunder Storm -- -- -- Scattered Scattered Scattered Scattered Scattered Scattered Scattered Numerous Numerous
Fog Patchy -- -- -- -- -- -- -- -- -- -- --
WIND CHILL -- -- -- -- -- -- -- -- -- -- -- --
SPRAY COND
DRY COND
LIVESTOCK HEATSTRESS 67.65 71.06 72.66 74.60 75.44 76.60 76.12 77.54 77.41 76.36 76.60 74.30



DAY SUNDAY MONDAY TUESDAY WEDNESDAY THURSDAY THU FRI
EDT 6HR 8P 9P 10P 11P MIDN 1A 2A 3A 4A 5A 6A 7A 8A 9A 10A 11A NOON 1P 2P 3P 4P 5P 6P 7P 8P 11P 2A 5A 8A 11A 2P 5P 8P 2A 8A 2P 8P 2A 8A 2P 8P 2A 8A 2P 8P 2A 8A 2P 8P
MAX/MIN -- -- -- -- -- -- -- -- -- -- -- -- 65° -- -- -- -- -- -- -- -- -- -- 83° -- -- -- -- 65° -- -- 81° -- -- 65° 81° -- -- 67° 81° -- -- 65° 83° -- -- 67° 85° --
TEMP 76° 74° 70° 70° 68° 67° 67° 67° 65° 65° 65° 67° 68° 72° 74° 79° 81° 81° 81° 83° 83° 81° 81° 79° 79° 70° 67° 65° 65° 72° 79° 79° 76° 67° 68° 81° 76° 67° 67° 79° 76° 67° 67° 81° 77° 67° 67° 85° 79°
SKY COVER 76% 78% 80% 80% 79% 77% 75% 76% 77% 78% 77% 76% 75% 75% 75% 75% 76% 76% 77% 76% 76% 76% 78% 81% 83% 88% 85% 86% 87% 90% 90% 82% 78% 56% 75% 81% 80% 80% 74% 84% 80% 77% 73% 60% 59% 51% 52% 62% 55%
Clouds
DEW PT 68° 68° 67° 67° 67° 67° 67° 67° 65° 65° 65° 67° 67° 67° 67° 68° 68° 67° 67° 67° 67° 67° 67° 68° 70° 67° 65° 65° 65° 65° 67° 67° 67° 65° 65° 67° 68° 65° 67° 67° 68° 67° 67° 67° 68° 67° 67° 67° 70°
RH 78% 84% 90% 93% 96% 96% 99% 100% 99% 99% 100% 100% 93% 87% 78% 71% 66% 62% 62% 60% 60% 62% 64% 71% 74% 90% 93% 97% 100% 81% 64% 64% 73% 90% 90% 63% 78% 93% 96% 66% 76% 96% 96% 64% 74% 96% 100% 56% 73%
POP 12HR 57% -- -- -- -- -- -- -- -- -- -- -- 49% -- -- -- -- -- -- -- -- -- -- -- 52% -- -- -- 42% -- -- -- 45% -- 29% -- 38% -- 30% -- 64% -- 44% -- 43% -- 40% -- 47%
RAIN/SNOW (liq.equ) 0.15in -- -- -- -- -- 0.07in -- -- -- -- -- 0.00in -- -- -- -- -- 0.02in -- -- -- -- -- 0.17in -- 0.06in -- 0.03in -- 0.12in -- 0.02in -- -- -- -- -- -- -- -- -- -- -- -- -- -- -- --
SNOWFALL 0in -- -- -- -- -- 0in -- -- -- -- -- 0in -- -- -- -- -- 0in -- -- -- -- -- 0in -- 0in -- 0in -- 0in -- 0in -- -- -- -- -- -- -- -- -- -- -- -- -- -- -- --
WIND SPEED(MPH) 2 2 1 1 1 2 2 2 2 2 2 1 1 1 1 1 1 2 2 2 1 1 1 1 1 1 1 1 0 1 2 6 2 2 2 5 2 2 2 6 5 5 6 7 6 5 5 6 2
WIND DIR SW SW S S S S S S S S S S S S S SW S S S S S S S SE E E SE SE E E NE NE E E SE E E SE SE S SE S S W W SW SW W SW
HeatIndex 76 74 70 70 68 67 67 67 65 65 65 67 68 72 74 79 84 85 85 86 86 85 83 79 79 70 67 65 65 72 82 82 76 67 68 85 76 67 67 82 76 67 67 83 77 67 67 88 83
Rain Showers Scattered Scattered Scattered Isolated Isolated Isolated Isolated Isolated Isolated Isolated Isolated Isolated Isolated Isolated Scattered Scattered Scattered Scattered Scattered Scattered Scattered Scattered Scattered Scattered Chance Chance Chance Chance Chance Chance Chance Chance Chance Slight Chance Slight Chance Chance Chance Chance Chance Chance Chance Chance Chance Chance Chance Chance Slight Chance Chance Slight Chance
Thunder Storm Scattered Scattered Scattered Isolated -- -- -- -- -- -- -- -- -- Isolated Scattered Scattered Scattered Scattered Scattered Scattered Scattered Scattered Scattered Scattered -- -- -- -- -- -- Slight Chance Slight Chance Slight Chance -- -- Chance Slight Chance -- -- Chance -- -- -- Chance Slight Chance -- -- Chance --
Fog -- -- -- -- -- -- -- -- -- -- -- -- -- -- -- -- -- -- -- -- -- -- -- -- -- -- -- -- -- -- -- -- -- -- -- -- -- -- -- -- -- -- -- -- -- -- -- -- --
WIND CHILL -- -- -- -- -- -- -- -- -- -- -- -- -- -- -- -- -- -- -- -- -- -- -- -- -- -- -- -- -- -- -- -- -- -- -- -- -- -- -- -- -- -- -- -- -- -- -- -- --
SPRAY COND
DRY COND
LIVESTOCK HEATSTRESS 73.92 72.66 69.38 69.57 67.80 66.82 66.95 67.00 64.97 64.97 65.00 67.00 67.65 71.06 72.16 75.78 76.85 76.36 76.36 77.68 77.68 76.36 76.60 75.78 76.11 69.38 66.68 64.90 65.00 70.62 75.00 75.00 73.45 66.55 67.49 76.48 73.92 66.68 66.82 75.22 73.73 66.82 66.82 76.60 74.40 66.82 67.00 78.66 76.00

Click on individual weather variable above in left-hand column (ie., TEMP, RH, QPF 12HR) to view state forecast maps






NWS 48 Hr. Forecast Maps,

Regional Hourly Observations For MCCREARY County, Kentucky
Issued at 700 AM EDT SAT MAY 26 2018
SOUTHEAST KENTUCKY
  
CITY           SKY/WX    TMP DP  RH WIND       PRES   REMARKS
JACKSON        FAIR      69  66  90 CALM      29.93S                  
LONDON         FAIR      68  66  93 CALM      29.94R                  
SOMERSET       FAIR      64  64 100 MISG      29.94R                  
MIDDLESBORO    CLOUDY    68  68 100 CALM      29.96R                  
MONTICELLO     FAIR      65  64  97 N8        29.95R                  


Current NOWCAST not available:
Nowcasts are not issued routinely during fair weather. Only when
precipitation or other significant weather is occuring in this county will these
forecasts be issued. Currently, there is no short term forecast in effect.


Fire Weather Forecast For MCCREARY County, KY
Provided by the National Weather Service:

Issued at: Sat May 26 07:05:01 EDT 2018

Clay City, Stanton, Frenchburg, Brodhead, Mount Vernon, McKee, 
Annville, Burnside, Somerset, London, Monticello, Stearns, 
Whitley City, Corbin, Williamsburg, Barbourville, Middlesboro, 
Pineville, Cumberland, Harlan, Sandy Hook, West Liberty, 
Paintsville, Campton, Salyersville, Prestonsburg, Wheelwright, 
Beattyville, Jackson, Hindman, Pippa Passes, Booneville, Hazard, 
Manchester, Hyden, Jenkins, Whitesburg, Inez, Coal Run, 
Elkhorn City, Pikeville, and South Williamson
507 AM EDT Sat May 26 2018

                      Today        Tonight      Sun          

Cloud Cover           PCldy        MCldy        MCldy        
Chance precip (%)     60           50           50           
Precip type           tstms        tstms        tstms        
Temp (24H TREND)      81-84 (-2)   62-67 (+1)   81-84        
Rh % (24H TREND)      54-61 (+9)   93-100 (+3)  58-63        
20ftwnd-AM(mph)       Lgt/Var                   Lgt/Var      
20ftwnd-PM(mph)       SW 2-6       Lgt/Var      Lgt/Var      
Precip duration       2            1            1            
Precip begin          8 AM                                   
Precip end            Continuing                             
Precip amount         0.23         0.10         0.14         
LAL                   4            3            4            
Haines Index (MID)    3                         3            
Mixing hgt(ft-AGL)    4000                      4500         
Transport wnd (mph)   SW  6                     SW  3        
Vent rate (kt-ft)     21468                     14674        
ADI Early             30 Fair      3 Very Poor  13 Gen Poor  
ADI Late              25 Fair      3 Very Poor  15 Gen Poor  
Max LVORI Early       6            9            8            
Max LVORI Late        3            10           3            

REMARKS...RANGES OF MIN T EXCEEDING 8 DEGREES & RANGES OF MAX RH        
EXCEEDING 10% INDICATE THE LIKELIHOOD OF THERMAL BELTS. ADI IS        
ATMOSPHERIC DISPERSION INDEX BY LAVDAS. DISPERSION INDEX IS        
MAGNITUDE OF VENT RATE DIVIDED BY 1000.


SPC's Fire Weather Web Tool (Excellent!), SPC's Fire Weather Outlooks, NWS Fire Weather WEB, Fire Danger Class Map,
Keetch-Byram Drought Index, ROMAN Web, Haines Index ,
WFAS's 10-hr Dead Fuel Moist., WFAS's 100-hr Dead Fuel Moist., Probablity of Ignition, Visual blackness Map, Palmer Drought Index, HPC's Rainfall Forecast Maps


Hazardous Weather Outlook For MCCREARY County, Kentucky
414 AM EDT Sat May 26 2018

 DAY ONE  Today and Tonight.

Scattered to numerous showers and thunderstorms are expected this
afternoon into early this evening. Minor flooding will be 
possible where storms track repeatedly over the same locations.

 DAYS TWO THROUGH SEVEN  Sunday through Friday.

Thunderstorms will be possible each day, mainly during the 
afternoon and evening.

 SPOTTER INFORMATION STATEMENT  

Spotter activation is not anticipated.

Latest MCCREARY County, Kentucky Watches, Warnings and Advisories.
Additional Drought Info.: UKAWC Drought Page, Kentucky Drought Watch


7-Day Forecast For MCCREARY County, KY

TODAY
Warm. Partly sunny. Patchy valley fog early. Scattered showers and thunderstorms in the morning, then numerous showers and thunderstorms in the afternoon. Highs in the mid 80s. Light winds. Chance of rain 60 percent.

TONIGHT
Mostly cloudy. Scattered showers and thunderstorms in the evening, then isolated showers late. Patchy valley fog late. Lows in the mid 60s. Light winds. Chance of rain 50 percent.

SUNDAY
Warm. Patchy valley fog early. Mostly cloudy with scattered showers and thunderstorms. Highs in the mid 80s. Light winds. Chance of rain 50 percent.

SUNDAY NIGHT
Mostly cloudy with a 40 percent chance of showers. Patchy valley fog. Lows in the mid 60s. Light winds.

MEMORIAL DAY
Mostly cloudy. A chance of showers in the morning, then a chance of showers and a slight chance of thunderstorms in the afternoon. Highs in the lower 80s. Light winds. Chance of rain 50 percent.

MONDAY NIGHT
Mostly cloudy with a chance of showers and a slight chance of thunderstorms. Patchy valley fog. Lows in the mid 60s. Chance of rain 30 percent.

TUESDAY
Mostly cloudy with a 50 percent chance of showers and thunderstorms. Highs in the lower 80s.

TUESDAY NIGHT
Mostly cloudy with a chance of showers and a slight chance of thunderstorms. Patchy valley fog. Lows in the upper 60s. Chance of rain 50 percent.

WEDNESDAY
Mostly cloudy with showers likely and a chance of thunderstorms. Highs in the lower 80s. Chance of rain 60 percent.

WEDNESDAY NIGHT
Mostly cloudy with showers likely. Patchy valley fog. Lows in the mid 60s. Chance of rain 60 percent.

THURSDAY
Partly sunny with a 50 percent chance of showers and thunderstorms. Highs in the mid 80s.

THURSDAY NIGHT
Mostly cloudy with a chance of showers and a slight chance of thunderstorms. Patchy valley fog. Lows in the upper 60s. Chance of rain 50 percent.

FRIDAY
Partly sunny with a 50 percent chance of showers and thunderstorms. Highs in the mid 80s.

Ag Weather Center, Department of Biosystems & Agricultural Engineering, University of Kentucky